Weather in Yartsevo

Russia / Novgorod Oblast     58°44′21″N   33°10′52″E
temp.,
°C
wind,
m/s
gust,
m/s
humid.,
%
clouds,
%
prec.,
mm/h
press.,
hPa
HPBL,
m
4 march, thu
thu400:00+1w71497100 0.9 1000978
03:000nw61188100 3.0 1000865
06:00−3nw4119236 0.1 1000583
09:00−5nw499148 0.1 1001596
12:00−3nw358298 0.1 1001675
15:00−3nw358398 0.1 1002670
18:00−4nw3686100 0.1 1002727
21:00−5nw3890100 0.2 1003534
5 march, fri
fri500:00−6nw389494 0.1 1004537
03:00−6wnw379496 0.2 1006463
06:00−7wnw379499 0.1 1006421
09:00−7nw369097 0.3 1008483
12:00−5nw3478100 0.1 1009773
15:00−4nw3578100 0.3 1011771
18:00−6nw3690100 0.3 1012401
21:00−8nnw279498 0.4 1015289
6 march, sat
sat600:00−10nnw129553 0.0 101633
03:00−10wnw129873 0.1 101722
06:00−10w229795 0.1 101879
09:00−8wnw369192 0.2 1017409
12:00−6w3577100 0.1 1016682
15:00−4wsw476768 0.1 1014934
18:00−5sw5127289 0.0 10091117
21:00−5sw7169095 0.7 10041311
7 march, sun
sun700:00−3sw81691100 1.8 9981312
03:00−3sw71592100 3.4 9941148
06:00−3wnw71294100 2.8 991999
09:00−7wnw51086100 3.2 9921152
12:00−5w6116067 0.1 9932045
15:00−5sw5107878 0.5 9921305
18:00−5wnw51087100 1.8 9901029
21:00−8wnw3895100 2.1 990454
8 march, mon
mon800:00−9nnw51291100 0.2 993661
03:00−11nnw51282100 0.8 996684
06:00−11nw51191100 0.1 999752
09:00−12nw51088100 0.2 1003716
12:00−11nnw5884100 0.1 1006757
15:00−11nnw5883100 0.2 1009838
18:00−13nnw4987100 0.1 1011729
21:00−14nnw4992100 0.1 1015693